Regional Weather Roundup
Issued by NWS New Orleans/Baton Rouge, LA

Home | Current Version | Previous Version | Graphics & Text | Print | Product List | Glossary On
Versions: 1 2 3 4 5 6 7 8 9 10 11 12 13 14 15 16 17 18 19 20 21 22 23 24 25 26 27 28 29 30 31 32 33 34 35 36 37 38 39 40 41 42 43 44 45 46 47 48 49 50
454
ASUS44 KLIX 232301
RWRLIX
NEW ORLEANS REGIONAL WEATHER ROUNDUP
NATIONAL WEATHER SERVICE NEW ORLEANS LA
600 PM CDT TUE SEP 23 2014

NOTE: "FAIR" INDICATES FEW OR NO CLOUDS BELOW 12,000 FEET WITH NO
      SIGNIFICANT WEATHER AND/OR OBSTRUCTIONS TO VISIBILITY.
      SKY/WX - SKY CONDITION AND SIGNIFICANT WEATHER.
      TMP - AIR TEMPERATURE.     DP    - DEWPOINT TEMPERATURE.
      RH  - RELATIVE HUMIDITY.   PRES  - PRESSURE.
      HI  - HEAT INDEX.          WCI   - WIND CHILL INDEX.

*  THESE STATIONS ARE NOT NWS OR FAA STATIONS AND ARE NOT UNDER
   NWS QUALITY CONTROL.

LAZ038-040-048-061>063-065>067-069-240000-
SOUTHEAST LOUISIANA

CITY           SKY/WX    TMP DP  RH WIND       PRES   REMARKS
N.O. AUDUBON     N/A     81  56  41 MISG        N/A
N.O. INTL ARPT MOSUNNY   83  51  33 NE12      30.02F
N.O. LAKEFRONT SUNNY     82  59  45 E9        30.03F
N.O. DOWNTOWN*   N/A     82  54  36 E5        30.03S
SLIDELL        SUNNY     82  55  39 N5        30.03S
BATON ROUGE    SUNNY     82  55  39 N6        30.04F
BOOTHVILLE     MOSUNNY   80  66  62 NE13      30.02F
BELLE CHASSE   MOSUNNY   81  55  40 E8        30.02S
BOGALUSA*        N/A     83  53  36 NE5       30.06S
GALLIANO*      NOT AVBL
NEW ROADS*       N/A     81  57  44 N7        30.05S
GONZALES*        N/A     81  54  39 NE5       30.03S
HAMMOND*       NOT AVBL
HOUMA*         NOT AVBL
PORT FOURCHON* CLEAR     81  57  44 NE14G21   30.05S

$$

MSZ070-080>082-240000-
SOUTHERN MISSISSIPPI

CITY           SKY/WX    TMP DP  RH WIND       PRES   REMARKS
MCCOMB         SUNNY     83  50  31 NE3       30.06F
GULFPORT       SUNNY     81  61  50 SE6       30.02S
BILOXI         SUNNY     83  57  40 E9        30.03S
PASCAGOULA     CLEAR     81  51  35 NE7       30.03S
STENNIS ARPT*  SUNNY     82  48  30 NE6       30.03F

$$

COASTAL OBSERVATIONS
LAKE AND NEARSHORE STATIONS

STATION/POSITION TIME  TEMP    WIND        PRES    WAVE
                       AIR SEA DIR/SP/G            HT/PER
                 (UTC) (F)     (DEG/KT/KT) (MB)    (FT/S)
PASCAGOULA       2200   85      50/  9/ 13 1016.4
WAVELAND YACHT   2200   82      30/  8/  9 1016.1
GRAND ISLE       2200   79 81   70/ 12/ 17 1017.1
SOUTHWEST PASS   2200   87 89   50/ 14/ 17 1016.3
NEW CANAL        2200   81 80   30/  7/  8 1017.1
SHELL BEACH      2200   80 77   70/ 12/ 15 1016.5

OFFSHORE STATIONS

STATION/POSITION TIME  TEMP    WIND        PRES    WAVE
                       AIR SEA DIR/SP/G            HT/PER
                 (UTC) (F)     (DEG/KT/KT) (MB)    (FT/S)
64 S DAUPHIN ISL 2234   78 84   50/ 17/ 21 1016.5    4/ 6

$$




USA.gov is the U.S. government's official web portal to all federal, state and local government web resources and services.